Appleton, MN

3:01 PM CDT on August 23, 2017 (GMT -0500)
Appleton Municipal

Weather History for KAQP - May, 2015

Change the Weather History Date:

Saturday, May 9, 2015

  Actual Average Record
Temperature  
Mean Temperature 50 °F -  
Max Temperature 64 °F 64 °F 82 °F (2001)
Min Temperature 35 °F 41 °F 32 °F (1997)
Degree Days  
Heating Degree Days 16    
Moisture  
Dew Point 34 °F    
Average Humidity 57    
Maximum Humidity 81    
Minimum Humidity 34    
Precipitation  
Precipitation 0.00 in - - ()
Sea Level Pressure  
Sea Level Pressure 30.16 in    
Wind  
Wind Speed 12 mph (North)    
Max Wind Speed 17 mph    
Max Gust Speed 24 mph    
Visibility 10 miles    
Events      
Averages and records for this station are not official NWS values.
T = Trace of Precipitation, MM = Missing Value Source: NWS Daily Summary

Daily Weather History Graph

Daily Weather History Graph

Search for Another Location

Airport or City:

Trip Planner

Search our weather history database for the weather conditions in past years. The results will help you decide how hot, cold, wet, or windy it might be!

Date:

Astronomy

May. 09, 2015 Rise Set
Actual Time 6:01 AM CDT 8:39 PM CDT
Civil Twilight 5:28 AM CDT 9:13 PM CDT
Nautical Twilight 4:46 AM CDT 9:55 PM CDT
Astronomical Twilight 3:57 AM CDT 10:44 PM CDT
Moon 12:52 AM CDT (5/9) 10:54 AM CDT (5/9)
Length of Visible Light 15h 45m
Length of Day
14h 37m
Waning Gibbous, 69% of the Moon is Illuminated
May 9
Waning Gibbous
May 11
Last Quarter
May 17
New
May 25
First Quarter
Jun 2
Full

Hourly Weather History & Observations

Time (CDT) Temp. Windchill Dew Point Humidity Pressure Visibility Wind Dir Wind Speed Gust Speed Precip Events Conditions
12:15 AM 39.2 °F 31.2 °F 28.4 °F 65% 30.17 in 10.0 mi NNW 13.8 mph 19.6 mph N/A   Clear
12:34 AM 37.4 °F 29.3 °F 28.4 °F 70% 30.17 in 10.0 mi NNW 12.7 mph - N/A   Clear
12:54 AM 37.4 °F 29.3 °F 28.4 °F 70% 30.18 in 10.0 mi NNW 12.7 mph - N/A   Clear
1:14 AM 37.4 °F 28.9 °F 30.2 °F 75% 30.18 in 10.0 mi NNW 13.8 mph - N/A   Clear
1:54 AM 37.4 °F 28.9 °F 28.4 °F 70% 30.20 in 10.0 mi NNW 13.8 mph - N/A   Clear
2:14 AM 35.6 °F 26.6 °F 28.4 °F 75% 30.19 in 10.0 mi NNW 13.8 mph 19.6 mph N/A   Clear
2:34 AM 35.6 °F 28.6 °F 28.4 °F 75% 30.20 in 10.0 mi NNW 9.2 mph - N/A   Clear
2:54 AM 35.6 °F 26.6 °F 28.4 °F 75% 30.20 in 10.0 mi NNW 13.8 mph 17.3 mph N/A   Clear
3:15 AM 35.6 °F 27.1 °F 28.4 °F 75% 30.20 in 10.0 mi NNW 12.7 mph - N/A   Clear
3:34 AM 35.6 °F 27.5 °F 28.4 °F 75% 30.20 in 10.0 mi NNW 11.5 mph - N/A   Clear
3:54 AM 35.6 °F 27.5 °F 30.2 °F 81% 30.20 in 10.0 mi NNW 11.5 mph 18.4 mph N/A   Clear
4:14 AM 35.6 °F 27.5 °F 28.4 °F 75% 30.20 in 10.0 mi North 11.5 mph - N/A   Clear
4:34 AM 35.6 °F 26.2 °F 30.2 °F 81% 30.20 in 10.0 mi North 15.0 mph 18.4 mph N/A   Clear
4:55 AM 35.6 °F 27.1 °F 30.2 °F 81% 30.20 in 10.0 mi North 12.7 mph - N/A   Clear
5:14 AM 35.6 °F 27.5 °F 30.2 °F 81% 30.21 in 10.0 mi North 11.5 mph - N/A   Clear
5:35 AM 35.6 °F 27.1 °F 30.2 °F 81% 30.19 in 10.0 mi North 12.7 mph - N/A   Clear
5:55 AM 35.6 °F 27.5 °F 30.2 °F 81% 30.21 in 10.0 mi NNW 11.5 mph - N/A   Clear
6:15 AM 35.6 °F 29.2 °F 30.2 °F 81% 30.22 in 10.0 mi NNW 8.1 mph - N/A   Clear
6:34 AM 35.6 °F 29.2 °F 30.2 °F 81% 30.22 in 10.0 mi North 8.1 mph - N/A   Clear
6:54 AM 35.6 °F 28.0 °F 30.2 °F 81% 30.22 in 10.0 mi North 10.4 mph - N/A   Clear
7:15 AM 37.4 °F 29.8 °F 30.2 °F 75% 30.22 in 10.0 mi North 11.5 mph - N/A   Clear
7:54 AM 39.2 °F 31.6 °F 33.8 °F 81% 30.22 in 10.0 mi North 12.7 mph - N/A   Clear
8:15 AM 41.0 °F 34.3 °F 33.8 °F 76% 30.22 in 10.0 mi North 11.5 mph - N/A   Clear
8:35 AM 42.8 °F 36.6 °F 33.8 °F 70% 30.23 in 10.0 mi NNE 11.5 mph - N/A   Clear
8:55 AM 44.6 °F 39.2 °F 33.8 °F 66% 30.22 in 10.0 mi NNE 10.4 mph - N/A   Clear
9:14 AM 44.6 °F 39.2 °F 35.6 °F 71% 30.21 in 10.0 mi NNE 10.4 mph 16.1 mph N/A   Clear
9:34 AM 46.4 °F 41.1 °F 35.6 °F 66% 30.20 in 10.0 mi NNE 11.5 mph 16.1 mph N/A   Clear
9:54 AM 48.2 °F - 35.6 °F 62% 30.19 in 10.0 mi NE 11.5 mph - N/A   Clear
10:15 AM 50.0 °F - 35.6 °F 58% 30.17 in 10.0 mi NE 10.4 mph - N/A   Clear
10:35 AM 51.8 °F - 35.6 °F 54% 30.17 in 10.0 mi NE 11.5 mph - N/A   Clear
10:54 AM 53.6 °F - 35.6 °F 51% 30.17 in 10.0 mi NE 6.9 mph - N/A   Clear
11:14 AM 55.4 °F - 37.4 °F 51% 30.17 in 10.0 mi ENE 9.2 mph - N/A   Clear
11:35 AM 55.4 °F - 37.4 °F 51% 30.17 in 10.0 mi North 6.9 mph - N/A   Scattered Clouds
11:54 AM 57.2 °F - 35.6 °F 44% 30.18 in 10.0 mi NNE 5.8 mph - N/A   Scattered Clouds
12:14 PM 57.2 °F - 37.4 °F 48% 30.17 in 10.0 mi NNE 9.2 mph - N/A   Scattered Clouds
12:35 PM 57.2 °F - 37.4 °F 48% 30.16 in 10.0 mi ENE 5.8 mph - N/A   Scattered Clouds
12:54 PM 59.0 °F - 37.4 °F 45% 30.16 in 10.0 mi ENE 11.5 mph 24.2 mph N/A   Clear
1:14 PM 60.8 °F - 37.4 °F 42% 30.16 in 10.0 mi North 6.9 mph - N/A   Clear
1:34 PM 60.8 °F - 37.4 °F 42% 30.16 in 10.0 mi NE 10.4 mph 16.1 mph N/A   Clear
1:54 PM 60.8 °F - 35.6 °F 39% 30.16 in 10.0 mi NNW 9.2 mph - N/A   Clear
2:15 PM 60.8 °F - 35.6 °F 39% 30.16 in 10.0 mi North 11.5 mph - N/A   Clear
2:34 PM 62.6 °F - 35.6 °F 37% 30.15 in 10.0 mi North 3.5 mph 10.4 mph N/A   Clear
2:54 PM 62.6 °F - 35.6 °F 37% 30.15 in 10.0 mi NE 6.9 mph - N/A   Clear
3:14 PM 62.6 °F - 35.6 °F 37% 30.14 in 10.0 mi NE 9.2 mph 16.1 mph N/A   Clear
3:34 PM 64.4 °F - 35.6 °F 34% 30.13 in 10.0 mi NNE 4.6 mph 17.3 mph N/A   Clear
3:54 PM 64.4 °F - 35.6 °F 34% 30.13 in 10.0 mi NE 8.1 mph - N/A   Clear
4:14 PM 62.6 °F - 35.6 °F 37% 30.13 in 10.0 mi NNE 8.1 mph - N/A   Clear
4:35 PM 62.6 °F - 35.6 °F 37% 30.12 in 10.0 mi NE 8.1 mph - N/A   Clear
4:54 PM 62.6 °F - 35.6 °F 37% 30.12 in 10.0 mi NNE 11.5 mph 17.3 mph N/A   Clear
5:15 PM 62.6 °F - 35.6 °F 37% 30.11 in 10.0 mi NNE 13.8 mph - N/A   Clear
5:34 PM 62.6 °F - 35.6 °F 37% 30.11 in 10.0 mi NE 15.0 mph 19.6 mph N/A   Clear
5:54 PM 60.8 °F - 35.6 °F 39% 30.11 in 10.0 mi NNE 11.5 mph 17.3 mph N/A   Mostly Cloudy
6:14 PM 60.8 °F - 35.6 °F 39% 30.11 in 10.0 mi NNE 11.5 mph - N/A   Mostly Cloudy
6:34 PM 60.8 °F - 35.6 °F 39% 30.11 in 10.0 mi NNE 11.5 mph - N/A   Mostly Cloudy
6:55 PM 60.8 °F - 35.6 °F 39% 30.11 in 10.0 mi NNE 12.7 mph - N/A   Scattered Clouds
7:14 PM 60.8 °F - 35.6 °F 39% 30.11 in 10.0 mi North 13.8 mph - N/A   Mostly Cloudy
7:34 PM 57.2 °F - 35.6 °F 44% 30.10 in 10.0 mi North 17.3 mph - N/A   Overcast
7:54 PM 57.2 °F - 35.6 °F 44% 30.10 in 10.0 mi North 17.3 mph - N/A   Overcast
8:15 PM 57.2 °F - 37.4 °F 48% 30.10 in 10.0 mi North 12.7 mph - N/A   Overcast
8:35 PM 57.2 °F - 35.6 °F 44% 30.10 in 10.0 mi North 17.3 mph - N/A   Overcast
8:54 PM 55.4 °F - 37.4 °F 51% 30.10 in 10.0 mi North 15.0 mph - N/A   Overcast
9:15 PM 55.4 °F - 37.4 °F 51% 30.10 in 10.0 mi North 13.8 mph 18.4 mph N/A   Overcast
9:34 PM 55.4 °F - 35.6 °F 47% 30.10 in 10.0 mi North 13.8 mph - N/A   Overcast
9:54 PM 55.4 °F - 35.6 °F 47% 30.10 in 10.0 mi North 13.8 mph - N/A   Mostly Cloudy
10:15 PM 55.4 °F - 37.4 °F 51% 30.09 in 10.0 mi North 16.1 mph - N/A   Overcast
10:34 PM 55.4 °F - 37.4 °F 51% 30.09 in 10.0 mi North 12.7 mph - N/A   Overcast
10:54 PM 55.4 °F - 37.4 °F 51% 30.09 in 10.0 mi North 15.0 mph - N/A   Overcast
11:15 PM 55.4 °F - 37.4 °F 51% 30.08 in 10.0 mi NNE 12.7 mph - N/A   Overcast
11:34 PM 55.4 °F - 39.2 °F 54% 30.09 in 10.0 mi NNE 11.5 mph - N/A   Scattered Clouds
11:54 PM 55.4 °F - 39.2 °F 54% 30.08 in 10.0 mi NE 13.8 mph - N/A   Clear